owner,sensor,date,latitude,longitude,dew_point_temperature,qcFlag 
ADCP,ioos:station:wmo:42365:1,2012-02-01T01:30:00Z,28.2000,-89.1200,18.6,11111222 
ADCP,ioos:station:wmo:42365:1,2012-02-01T02:30:00Z,28.2000,-89.1200,19.0,11111222 
ADCP,ioos:station:wmo:42365:1,2012-02-01T03:30:00Z,28.2000,-89.1200,18.8,11111222 
ADCP,ioos:station:wmo:42365:1,2012-02-01T04:30:00Z,28.2000,-89.1200,18.8,11111222 
ADCP,ioos:station:wmo:42365:1,2012-02-01T05:30:00Z,28.2000,-89.1200,18.7,11111222 
ADCP,ioos:station:wmo:42365:1,2012-02-01T06:30:00Z,28.2000,-89.1200,18.8,11111222 
ADCP,ioos:station:wmo:42365:1,2012-02-01T07:30:00Z,28.2000,-89.1200,18.9,11111222 
ADCP,ioos:station:wmo:42365:1,2012-02-01T09:30:00Z,28.2000,-89.1200,19.2,11111222 
ADCP,ioos:station:wmo:42365:1,2012-02-01T10:30:00Z,28.2000,-89.1200,19.4,11111222 
ADCP,ioos:station:wmo:42365:1,2012-02-01T11:30:00Z,28.2000,-89.1200,19.4,11111222 
ADCP,ioos:station:wmo:42365:1,2012-02-01T12:30:00Z,28.2000,-89.1200,19.6,11111222 
ADCP,ioos:station:wmo:42365:1,2012-02-01T13:30:00Z,28.2000,-89.1200,19.7,11111222 
ADCP,ioos:station:wmo:42365:1,2012-02-01T14:30:00Z,28.2000,-89.1200,19.8,11111222 
ADCP,ioos:station:wmo:42365:1,2012-02-01T15:30:00Z,28.2000,-89.1200,19.7,11111222 
ADCP,ioos:station:wmo:42365:1,2012-02-01T16:30:00Z,28.2000,-89.1200,19.6,11111222 
ADCP,ioos:station:wmo:42365:1,2012-02-01T17:30:00Z,28.2000,-89.1200,19.1,11111222 
ADCP,ioos:station:wmo:42365:1,2012-02-01T18:30:00Z,28.2000,-89.1200,18.4,11111222 
ADCP,ioos:station:wmo:42365:1,2012-02-01T19:30:00Z,28.2000,-89.1200,19.7,11111222 
ADCP,ioos:station:wmo:42365:1,2012-02-01T20:30:00Z,28.2000,-89.1200,19.7,11111222 
ADCP,ioos:station:wmo:42365:1,2012-02-01T21:30:00Z,28.2000,-89.1200,19.8,11111222 
ADCP,ioos:station:wmo:42365:1,2012-02-01T23:30:00Z,28.2000,-89.1200,19.9,11111222 
ADCP,ioos:station:wmo:42365:1,2012-02-02T00:30:00Z,28.2000,-89.1200,20.0,11111222 
ADCP,ioos:station:wmo:42365:1,2012-02-02T01:30:00Z,28.2000,-89.1200,19.0,11111222 
ADCP,ioos:station:wmo:42365:1,2012-02-02T02:30:00Z,28.2000,-89.1200,19.9,11111222 
ADCP,ioos:station:wmo:42365:1,2012-02-02T03:30:00Z,28.2000,-89.1200,20.0,11111222 
ADCP,ioos:station:wmo:42365:1,2012-02-02T04:30:00Z,28.2000,-89.1200,19.7,11111222 
ADCP,ioos:station:wmo:42365:1,2012-02-02T05:30:00Z,28.2000,-89.1200,19.6,11111222 
ADCP,ioos:station:wmo:42365:1,2012-02-02T06:30:00Z,28.2000,-89.1200,19.2,11111222 
ADCP,ioos:station:wmo:42365:1,2012-02-02T07:30:00Z,28.2000,-89.1200,19.6,11111222 
ADCP,ioos:station:wmo:42365:1,2012-02-02T08:30:00Z,28.2000,-89.1200,19.6,11111222 
ADCP,ioos:station:wmo:42365:1,2012-02-02T09:30:00Z,28.2000,-89.1200,19.4,11111222 
ADCP,ioos:station:wmo:42365:1,2012-02-02T10:30:00Z,28.2000,-89.1200,19.2,11111222 
ADCP,ioos:station:wmo:42365:1,2012-02-02T11:30:00Z,28.2000,-89.1200,19.2,11111222 
ADCP,ioos:station:wmo:42365:1,2012-02-02T12:30:00Z,28.2000,-89.1200,19.4,11111222 
ADCP,ioos:station:wmo:42365:1,2012-02-02T13:30:00Z,28.2000,-89.1200,19.0,11111222 
ADCP,ioos:station:wmo:42365:1,2012-02-02T14:30:00Z,28.2000,-89.1200,18.7,11111222 
ADCP,ioos:station:wmo:42365:1,2012-02-02T15:30:00Z,28.2000,-89.1200,19.7,11111222 
ADCP,ioos:station:wmo:42365:1,2012-02-02T16:30:00Z,28.2000,-89.1200,20.0,11111222 
ADCP,ioos:station:wmo:42365:1,2012-02-02T17:30:00Z,28.2000,-89.1200,20.1,11111222 
ADCP,ioos:station:wmo:42365:1,2012-02-02T18:30:00Z,28.2000,-89.1200,19.7,11111222 
ADCP,ioos:station:wmo:42365:1,2012-02-02T19:30:00Z,28.2000,-89.1200,19.7,11111222 
ADCP,ioos:station:wmo:42365:1,2012-02-02T20:30:00Z,28.2000,-89.1200,19.7,11111222 
ADCP,ioos:station:wmo:42365:1,2012-02-02T21:30:00Z,28.2000,-89.1200,20.0,11111222 
ADCP,ioos:station:wmo:42365:1,2012-02-02T22:30:00Z,28.2000,-89.1200,19.7,11111222 
ADCP,ioos:station:wmo:42365:1,2012-02-02T23:30:00Z,28.2000,-89.1200,19.7,11111222 
ADCP,ioos:station:wmo:42365:1,2012-02-03T00:30:00Z,28.2000,-89.1200,19.8,11111222 
ADCP,ioos:station:wmo:42365:1,2012-02-03T01:30:00Z,28.2000,-89.1200,19.8,11111222 
ADCP,ioos:station:wmo:42365:1,2012-02-03T02:30:00Z,28.2000,-89.1200,19.8,11111222 
ADCP,ioos:station:wmo:42365:1,2012-02-03T04:30:00Z,28.2000,-89.1200,19.5,11111222 
ADCP,ioos:station:wmo:42365:1,2012-02-03T05:30:00Z,28.2000,-89.1200,19.2,11111222 
ADCP,ioos:station:wmo:42365:1,2012-02-03T06:30:00Z,28.2000,-89.1200,19.4,11111222 
ADCP,ioos:station:wmo:42365:1,2012-02-03T07:30:00Z,28.2000,-89.1200,19.2,11111222 
ADCP,ioos:station:wmo:42365:1,2012-02-03T08:30:00Z,28.2000,-89.1200,19.0,11111222 
ADCP,ioos:station:wmo:42365:1,2012-02-03T09:30:00Z,28.2000,-89.1200,18.7,11111222 
ADCP,ioos:station:wmo:42365:1,2012-02-03T10:30:00Z,28.2000,-89.1200,18.4,11111222 
ADCP,ioos:station:wmo:42365:1,2012-02-03T11:30:00Z,28.2000,-89.1200,18.1,11111222 
ADCP,ioos:station:wmo:42365:1,2012-02-03T12:30:00Z,28.2000,-89.1200,17.5,11111222 
ADCP,ioos:station:wmo:42365:1,2012-02-03T14:30:00Z,28.2000,-89.1200,17.8,11111222 
ADCP,ioos:station:wmo:42365:1,2012-02-03T15:30:00Z,28.2000,-89.1200,17.7,11111222 
ADCP,ioos:station:wmo:42365:1,2012-02-03T16:30:00Z,28.2000,-89.1200,18.2,11111222 
ADCP,ioos:station:wmo:42365:1,2012-02-03T17:30:00Z,28.2000,-89.1200,18.7,11111222 
ADCP,ioos:station:wmo:42365:1,2012-02-03T18:30:00Z,28.2000,-89.1200,18.6,11111222 
ADCP,ioos:station:wmo:42365:1,2012-02-03T19:30:00Z,28.2000,-89.1200,18.5,11111222 
ADCP,ioos:station:wmo:42365:1,2012-02-03T20:30:00Z,28.2000,-89.1200,18.6,11111222 
ADCP,ioos:station:wmo:42365:1,2012-02-03T21:30:00Z,28.2000,-89.1200,19.1,11111222 
ADCP,ioos:station:wmo:42365:1,2012-02-03T22:30:00Z,28.2000,-89.1200,19.4,11111222 
ADCP,ioos:station:wmo:42365:1,2012-02-03T23:30:00Z,28.2000,-89.1200,19.2,11111222 
ADCP,ioos:station:wmo:42365:1,2012-02-04T00:30:00Z,28.2000,-89.1200,19.3,11111222 
ADCP,ioos:station:wmo:42365:1,2012-02-04T01:30:00Z,28.2000,-89.1200,19.4,11111222 
ADCP,ioos:station:wmo:42365:1,2012-02-04T03:30:00Z,28.2000,-89.1200,19.4,11111222 
ADCP,ioos:station:wmo:42365:1,2012-02-04T04:30:00Z,28.2000,-89.1200,19.3,11111222 
ADCP,ioos:station:wmo:42365:1,2012-02-04T05:30:00Z,28.2000,-89.1200,19.2,11111222 
ADCP,ioos:station:wmo:42365:1,2012-02-04T06:30:00Z,28.2000,-89.1200,19.1,11111222 
ADCP,ioos:station:wmo:42365:1,2012-02-04T08:30:00Z,28.2000,-89.1200,18.3,11111222 
ADCP,ioos:station:wmo:42365:1,2012-02-04T09:30:00Z,28.2000,-89.1200,18.7,11111222 
ADCP,ioos:station:wmo:42365:1,2012-02-04T10:30:00Z,28.2000,-89.1200,18.2,11111222 
ADCP,ioos:station:wmo:42365:1,2012-02-04T11:30:00Z,28.2000,-89.1200,18.5,11111222 
ADCP,ioos:station:wmo:42365:1,2012-02-04T12:30:00Z,28.2000,-89.1200,18.9,11111222 
ADCP,ioos:station:wmo:42365:1,2012-02-04T13:30:00Z,28.2000,-89.1200,19.1,11111222 
ADCP,ioos:station:wmo:42365:1,2012-02-04T14:30:00Z,28.2000,-89.1200,19.0,11111222 
ADCP,ioos:station:wmo:42365:1,2012-02-04T15:30:00Z,28.2000,-89.1200,19.1,11111222 
ADCP,ioos:station:wmo:42365:1,2012-02-04T16:30:00Z,28.2000,-89.1200,19.2,11111222 
ADCP,ioos:station:wmo:42365:1,2012-02-04T17:30:00Z,28.2000,-89.1200,19.2,11111222 
ADCP,ioos:station:wmo:42365:1,2012-02-04T18:30:00Z,28.2000,-89.1200,19.4,11111222 
ADCP,ioos:station:wmo:42365:1,2012-02-04T19:30:00Z,28.2000,-89.1200,19.2,11111222 
ADCP,ioos:station:wmo:42365:1,2012-02-04T20:30:00Z,28.2000,-89.1200,19.1,11111222 
ADCP,ioos:station:wmo:42365:1,2012-02-04T21:30:00Z,28.2000,-89.1200,19.2,11111222 
ADCP,ioos:station:wmo:42365:1,2012-02-04T22:30:00Z,28.2000,-89.1200,19.4,11111222 
ADCP,ioos:station:wmo:42365:1,2012-02-04T23:30:00Z,28.2000,-89.1200,19.4,11111222 
ADCP,ioos:station:wmo:42365:1,2012-02-05T00:30:00Z,28.2000,-89.1200,19.3,11111222 
ADCP,ioos:station:wmo:42365:1,2012-02-05T01:30:00Z,28.2000,-89.1200,19.5,11111222 
ADCP,ioos:station:wmo:42365:1,2012-02-05T02:30:00Z,28.2000,-89.1200,19.6,11111222 
ADCP,ioos:station:wmo:42365:1,2012-02-05T03:30:00Z,28.2000,-89.1200,19.7,11111222 
ADCP,ioos:station:wmo:42365:1,2012-02-05T04:30:00Z,28.2000,-89.1200,19.7,11111222 
ADCP,ioos:station:wmo:42365:1,2012-02-05T05:30:00Z,28.2000,-89.1200,19.7,11111222 
ADCP,ioos:station:wmo:42365:1,2012-02-05T06:30:00Z,28.2000,-89.1200,19.7,11111222 
ADCP,ioos:station:wmo:42365:1,2012-02-05T07:30:00Z,28.2000,-89.1200,19.5,11111222 
ADCP,ioos:station:wmo:42365:1,2012-02-05T09:30:00Z,28.2000,-89.1200,19.5,11111222 
ADCP,ioos:station:wmo:42365:1,2012-02-05T10:30:00Z,28.2000,-89.1200,19.4,11111222 
ADCP,ioos:station:wmo:42365:1,2012-02-05T11:30:00Z,28.2000,-89.1200,18.9,11111222 
ADCP,ioos:station:wmo:42365:1,2012-02-05T12:30:00Z,28.2000,-89.1200,18.7,11111222 
ADCP,ioos:station:wmo:42365:1,2012-02-05T13:30:00Z,28.2000,-89.1200,17.5,11111222 
ADCP,ioos:station:wmo:42365:1,2012-02-05T14:30:00Z,28.2000,-89.1200,16.7,11111222 
ADCP,ioos:station:wmo:42365:1,2012-02-05T15:30:00Z,28.2000,-89.1200,16.6,11111222 
ADCP,ioos:station:wmo:42365:1,2012-02-05T16:30:00Z,28.2000,-89.1200,16.4,11111222 
ADCP,ioos:station:wmo:42365:1,2012-02-05T17:30:00Z,28.2000,-89.1200,16.6,11111222 
ADCP,ioos:station:wmo:42365:1,2012-02-05T18:30:00Z,28.2000,-89.1200,16.6,11111222 
ADCP,ioos:station:wmo:42365:1,2012-02-05T19:30:00Z,28.2000,-89.1200,16.6,11111222 
ADCP,ioos:station:wmo:42365:1,2012-02-05T20:30:00Z,28.2000,-89.1200,16.3,11111222 
ADCP,ioos:station:wmo:42365:1,2012-02-05T21:30:00Z,28.2000,-89.1200,16.3,11111222 
ADCP,ioos:station:wmo:42365:1,2012-02-05T22:30:00Z,28.2000,-89.1200,16.4,11111222 
ADCP,ioos:station:wmo:42365:1,2012-02-05T23:30:00Z,28.2000,-89.1200,16.3,11111222 
ADCP,ioos:station:wmo:42365:1,2012-02-06T00:30:00Z,28.2000,-89.1200,16.4,11111222 
ADCP,ioos:station:wmo:42365:1,2012-02-06T03:30:00Z,28.2000,-89.1200,16.0,11111222 
ADCP,ioos:station:wmo:42365:1,2012-02-06T04:30:00Z,28.2000,-89.1200,15.8,11111222 
ADCP,ioos:station:wmo:42365:1,2012-02-06T05:30:00Z,28.2000,-89.1200,15.8,11111222 
ADCP,ioos:station:wmo:42365:1,2012-02-06T06:30:00Z,28.2000,-89.1200,15.5,11111222 
ADCP,ioos:station:wmo:42365:1,2012-02-06T08:30:00Z,28.2000,-89.1200,15.2,11111222 
ADCP,ioos:station:wmo:42365:1,2012-02-06T09:30:00Z,28.2000,-89.1200,15.3,11111222 
ADCP,ioos:station:wmo:42365:1,2012-02-06T10:30:00Z,28.2000,-89.1200,15.2,11111222 
ADCP,ioos:station:wmo:42365:1,2012-02-06T11:30:00Z,28.2000,-89.1200,14.4,11111222 
ADCP,ioos:station:wmo:42365:1,2012-02-06T12:30:00Z,28.2000,-89.1200,14.6,11111222 
ADCP,ioos:station:wmo:42365:1,2012-02-06T13:30:00Z,28.2000,-89.1200,13.9,11111222 
ADCP,ioos:station:wmo:42365:1,2012-02-06T15:30:00Z,28.2000,-89.1200,14.6,11111222 
ADCP,ioos:station:wmo:42365:1,2012-02-06T16:30:00Z,28.2000,-89.1200,14.4,11111222 
ADCP,ioos:station:wmo:42365:1,2012-02-06T17:30:00Z,28.2000,-89.1200,14.2,11111222 
ADCP,ioos:station:wmo:42365:1,2012-02-06T18:30:00Z,28.2000,-89.1200,14.1,11111222 
ADCP,ioos:station:wmo:42365:1,2012-02-06T19:30:00Z,28.2000,-89.1200,13.9,11111222 
ADCP,ioos:station:wmo:42365:1,2012-02-06T21:30:00Z,28.2000,-89.1200,13.9,11111222 
ADCP,ioos:station:wmo:42365:1,2012-02-06T22:30:00Z,28.2000,-89.1200,13.6,11111222 
ADCP,ioos:station:wmo:42365:1,2012-02-06T23:30:00Z,28.2000,-89.1200,13.6,11111222 
ADCP,ioos:station:wmo:42365:1,2012-02-07T00:30:00Z,28.2000,-89.1200,13.5,11111222 
ADCP,ioos:station:wmo:42365:1,2012-02-07T01:30:00Z,28.2000,-89.1200,13.6,11111222 
ADCP,ioos:station:wmo:42365:1,2012-02-07T02:30:00Z,28.2000,-89.1200,13.3,11111222 
ADCP,ioos:station:wmo:42365:1,2012-02-07T03:30:00Z,28.2000,-89.1200,13.0,11111222 
ADCP,ioos:station:wmo:42365:1,2012-02-07T04:30:00Z,28.2000,-89.1200,12.2,11111222 
ADCP,ioos:station:wmo:42365:1,2012-02-07T05:30:00Z,28.2000,-89.1200,11.4,11111222 
ADCP,ioos:station:wmo:42365:1,2012-02-07T06:30:00Z,28.2000,-89.1200,9.7,11111222 
ADCP,ioos:station:wmo:42365:1,2012-02-07T07:30:00Z,28.2000,-89.1200,10.5,11111222 
ADCP,ioos:station:wmo:42365:1,2012-02-07T08:30:00Z,28.2000,-89.1200,10.7,11111222 
ADCP,ioos:station:wmo:42365:1,2012-02-07T09:30:00Z,28.2000,-89.1200,10.4,11111222 
ADCP,ioos:station:wmo:42365:1,2012-02-07T10:30:00Z,28.2000,-89.1200,11.0,11111222 
ADCP,ioos:station:wmo:42365:1,2012-02-07T11:30:00Z,28.2000,-89.1200,11.2,11111222 
ADCP,ioos:station:wmo:42365:1,2012-02-07T12:30:00Z,28.2000,-89.1200,11.2,11111222 
ADCP,ioos:station:wmo:42365:1,2012-02-07T13:30:00Z,28.2000,-89.1200,12.1,11111222 
ADCP,ioos:station:wmo:42365:1,2012-02-07T14:30:00Z,28.2000,-89.1200,12.3,11111222 
ADCP,ioos:station:wmo:42365:1,2012-02-07T15:30:00Z,28.2000,-89.1200,13.0,11111222 
ADCP,ioos:station:wmo:42365:1,2012-02-07T16:30:00Z,28.2000,-89.1200,13.2,11111222 
ADCP,ioos:station:wmo:42365:1,2012-02-07T17:30:00Z,28.2000,-89.1200,13.1,11111222 
ADCP,ioos:station:wmo:42365:1,2012-02-07T18:30:00Z,28.2000,-89.1200,13.6,11111222 
ADCP,ioos:station:wmo:42365:1,2012-02-07T19:30:00Z,28.2000,-89.1200,13.8,11111222 
ADCP,ioos:station:wmo:42365:1,2012-02-07T20:30:00Z,28.2000,-89.1200,13.9,11111222 
ADCP,ioos:station:wmo:42365:1,2012-02-07T21:30:00Z,28.2000,-89.1200,13.1,11111222 
ADCP,ioos:station:wmo:42365:1,2012-02-07T22:30:00Z,28.2000,-89.1200,12.8,11111222 
ADCP,ioos:station:wmo:42365:1,2012-02-07T23:30:00Z,28.2000,-89.1200,12.8,11111222 
ADCP,ioos:station:wmo:42365:1,2012-02-08T00:30:00Z,28.2000,-89.1200,12.8,11111222 
ADCP,ioos:station:wmo:42365:1,2012-02-08T01:30:00Z,28.2000,-89.1200,12.8,11111222 
ADCP,ioos:station:wmo:42365:1,2012-02-08T02:30:00Z,28.2000,-89.1200,12.9,11111222 
ADCP,ioos:station:wmo:42365:1,2012-02-08T03:30:00Z,28.2000,-89.1200,14.0,11111222 
ADCP,ioos:station:wmo:42365:1,2012-02-08T04:30:00Z,28.2000,-89.1200,12.7,11111222 
ADCP,ioos:station:wmo:42365:1,2012-02-08T05:30:00Z,28.2000,-89.1200,11.9,11111222 
ADCP,ioos:station:wmo:42365:1,2012-02-08T06:30:00Z,28.2000,-89.1200,10.5,11111222 
ADCP,ioos:station:wmo:42365:1,2012-02-08T07:30:00Z,28.2000,-89.1200,11.8,11111222 
ADCP,ioos:station:wmo:42365:1,2012-02-08T08:30:00Z,28.2000,-89.1200,11.9,11111222 
ADCP,ioos:station:wmo:42365:1,2012-02-08T09:30:00Z,28.2000,-89.1200,12.7,11111222 
ADCP,ioos:station:wmo:42365:1,2012-02-08T10:30:00Z,28.2000,-89.1200,12.0,11111222 
ADCP,ioos:station:wmo:42365:1,2012-02-08T11:30:00Z,28.2000,-89.1200,12.9,11111222 
ADCP,ioos:station:wmo:42365:1,2012-02-08T12:30:00Z,28.2000,-89.1200,11.7,11111222 
ADCP,ioos:station:wmo:42365:1,2012-02-08T13:30:00Z,28.2000,-89.1200,10.9,11111222 
ADCP,ioos:station:wmo:42365:1,2012-02-08T14:30:00Z,28.2000,-89.1200,11.1,11111222 
ADCP,ioos:station:wmo:42365:1,2012-02-08T15:30:00Z,28.2000,-89.1200,10.8,11111222 
ADCP,ioos:station:wmo:42365:1,2012-02-08T16:30:00Z,28.2000,-89.1200,9.9,11111222 
ADCP,ioos:station:wmo:42365:1,2012-02-08T17:30:00Z,28.2000,-89.1200,9.7,11111222 
ADCP,ioos:station:wmo:42365:1,2012-02-08T18:30:00Z,28.2000,-89.1200,10.1,11111222 
ADCP,ioos:station:wmo:42365:1,2012-02-08T19:30:00Z,28.2000,-89.1200,10.2,11111222 
ADCP,ioos:station:wmo:42365:1,2012-02-08T20:30:00Z,28.2000,-89.1200,10.1,11111222 
ADCP,ioos:station:wmo:42365:1,2012-02-08T21:30:00Z,28.2000,-89.1200,9.3,11111222 
ADCP,ioos:station:wmo:42365:1,2012-02-08T22:30:00Z,28.2000,-89.1200,9.4,11111222 
ADCP,ioos:station:wmo:42365:1,2012-02-08T23:30:00Z,28.2000,-89.1200,9.8,11111222 
ADCP,ioos:station:wmo:42365:1,2012-02-09T00:30:00Z,28.2000,-89.1200,9.7,11111222 
ADCP,ioos:station:wmo:42365:1,2012-02-09T01:30:00Z,28.2000,-89.1200,9.6,11111222 
ADCP,ioos:station:wmo:42365:1,2012-02-09T02:30:00Z,28.2000,-89.1200,9.7,11111222 
ADCP,ioos:station:wmo:42365:1,2012-02-09T03:30:00Z,28.2000,-89.1200,10.0,11111222 
ADCP,ioos:station:wmo:42365:1,2012-02-09T04:30:00Z,28.2000,-89.1200,9.4,11111222 
ADCP,ioos:station:wmo:42365:1,2012-02-09T06:30:00Z,28.2000,-89.1200,10.3,11111222 
ADCP,ioos:station:wmo:42365:1,2012-02-09T07:30:00Z,28.2000,-89.1200,9.1,11111222 
ADCP,ioos:station:wmo:42365:1,2012-02-09T08:30:00Z,28.2000,-89.1200,8.9,11111222 
ADCP,ioos:station:wmo:42365:1,2012-02-09T09:30:00Z,28.2000,-89.1200,8.9,11111222 
ADCP,ioos:station:wmo:42365:1,2012-02-09T10:30:00Z,28.2000,-89.1200,7.9,11111222 
ADCP,ioos:station:wmo:42365:1,2012-02-09T11:30:00Z,28.2000,-89.1200,9.3,11111222 
ADCP,ioos:station:wmo:42365:1,2012-02-09T12:30:00Z,28.2000,-89.1200,8.8,11111222 
ADCP,ioos:station:wmo:42365:1,2012-02-09T13:30:00Z,28.2000,-89.1200,9.0,11111222 
ADCP,ioos:station:wmo:42365:1,2012-02-09T14:30:00Z,28.2000,-89.1200,9.3,11111222 
ADCP,ioos:station:wmo:42365:1,2012-02-09T15:30:00Z,28.2000,-89.1200,9.5,11111222 
ADCP,ioos:station:wmo:42365:1,2012-02-09T16:30:00Z,28.2000,-89.1200,10.1,11111222 
ADCP,ioos:station:wmo:42365:1,2012-02-09T17:30:00Z,28.2000,-89.1200,9.2,11111222 
ADCP,ioos:station:wmo:42365:1,2012-02-09T18:30:00Z,28.2000,-89.1200,10.0,11111222 
ADCP,ioos:station:wmo:42365:1,2012-02-09T19:30:00Z,28.2000,-89.1200,9.6,11111222 
ADCP,ioos:station:wmo:42365:1,2012-02-09T20:30:00Z,28.2000,-89.1200,9.4,11111222 
ADCP,ioos:station:wmo:42365:1,2012-02-09T21:30:00Z,28.2000,-89.1200,9.8,11111222 
ADCP,ioos:station:wmo:42365:1,2012-02-09T22:30:00Z,28.2000,-89.1200,9.6,11111222 
ADCP,ioos:station:wmo:42365:1,2012-02-09T23:30:00Z,28.2000,-89.1200,9.9,11111222 
ADCP,ioos:station:wmo:42365:1,2012-02-10T00:30:00Z,28.2000,-89.1200,9.7,11111222 
ADCP,ioos:station:wmo:42365:1,2012-02-10T01:30:00Z,28.2000,-89.1200,9.9,11111222 
ADCP,ioos:station:wmo:42365:1,2012-02-10T02:30:00Z,28.2000,-89.1200,9.6,11111222 
ADCP,ioos:station:wmo:42365:1,2012-02-10T03:30:00Z,28.2000,-89.1200,9.1,11111222 
ADCP,ioos:station:wmo:42365:1,2012-02-10T04:30:00Z,28.2000,-89.1200,9.4,11111222 
ADCP,ioos:station:wmo:42365:1,2012-02-10T05:30:00Z,28.2000,-89.1200,9.4,11111222 
ADCP,ioos:station:wmo:42365:1,2012-02-10T06:30:00Z,28.2000,-89.1200,9.6,11111222 
ADCP,ioos:station:wmo:42365:1,2012-02-10T07:30:00Z,28.2000,-89.1200,10.1,11111222 
ADCP,ioos:station:wmo:42365:1,2012-02-10T08:30:00Z,28.2000,-89.1200,11.0,11111222 
ADCP,ioos:station:wmo:42365:1,2012-02-10T09:30:00Z,28.2000,-89.1200,11.5,11111222 
ADCP,ioos:station:wmo:42365:1,2012-02-10T10:30:00Z,28.2000,-89.1200,12.3,11111222 
ADCP,ioos:station:wmo:42365:1,2012-02-10T11:30:00Z,28.2000,-89.1200,12.4,11111222 
ADCP,ioos:station:wmo:42365:1,2012-02-10T12:30:00Z,28.2000,-89.1200,12.5,11111222 
ADCP,ioos:station:wmo:42365:1,2012-02-10T13:30:00Z,28.2000,-89.1200,13.1,11111222 
ADCP,ioos:station:wmo:42365:1,2012-02-10T14:30:00Z,28.2000,-89.1200,13.4,11111222 
ADCP,ioos:station:wmo:42365:1,2012-02-10T15:30:00Z,28.2000,-89.1200,13.9,11111222 
ADCP,ioos:station:wmo:42365:1,2012-02-10T16:30:00Z,28.2000,-89.1200,14.6,11111222 
ADCP,ioos:station:wmo:42365:1,2012-02-10T17:30:00Z,28.2000,-89.1200,14.8,11111222 
ADCP,ioos:station:wmo:42365:1,2012-02-10T18:30:00Z,28.2000,-89.1200,14.5,11111222 
ADCP,ioos:station:wmo:42365:1,2012-02-10T19:30:00Z,28.2000,-89.1200,15.0,11111222 
ADCP,ioos:station:wmo:42365:1,2012-02-10T20:30:00Z,28.2000,-89.1200,15.0,11111222 
ADCP,ioos:station:wmo:42365:1,2012-02-10T21:30:00Z,28.2000,-89.1200,14.9,11111222 
ADCP,ioos:station:wmo:42365:1,2012-02-10T22:30:00Z,28.2000,-89.1200,15.9,11111222 
ADCP,ioos:station:wmo:42365:1,2012-02-10T23:30:00Z,28.2000,-89.1200,13.3,11111222 
ADCP,ioos:station:wmo:42365:1,2012-02-11T00:30:00Z,28.2000,-89.1200,13.3,11111222 
ADCP,ioos:station:wmo:42365:1,2012-02-11T01:30:00Z,28.2000,-89.1200,12.5,11111222 
ADCP,ioos:station:wmo:42365:1,2012-02-11T02:30:00Z,28.2000,-89.1200,12.2,11111222 
ADCP,ioos:station:wmo:42365:1,2012-02-11T03:30:00Z,28.2000,-89.1200,13.3,11111222 
ADCP,ioos:station:wmo:42365:1,2012-02-11T04:30:00Z,28.2000,-89.1200,11.5,11111222 
ADCP,ioos:station:wmo:42365:1,2012-02-11T05:30:00Z,28.2000,-89.1200,11.6,11111222 
ADCP,ioos:station:wmo:42365:1,2012-02-11T06:30:00Z,28.2000,-89.1200,11.2,11111222 
ADCP,ioos:station:wmo:42365:1,2012-02-11T07:30:00Z,28.2000,-89.1200,10.2,11111222 
ADCP,ioos:station:wmo:42365:1,2012-02-11T08:30:00Z,28.2000,-89.1200,9.6,11111222 
ADCP,ioos:station:wmo:42365:1,2012-02-11T09:30:00Z,28.2000,-89.1200,8.5,11111222 
ADCP,ioos:station:wmo:42365:1,2012-02-11T10:30:00Z,28.2000,-89.1200,7.6,11111222 
ADCP,ioos:station:wmo:42365:1,2012-02-11T12:30:00Z,28.2000,-89.1200,7.0,11111222 
ADCP,ioos:station:wmo:42365:1,2012-02-11T13:30:00Z,28.2000,-89.1200,6.5,11111222 
ADCP,ioos:station:wmo:42365:1,2012-02-11T14:30:00Z,28.2000,-89.1200,5.2,11111222 
ADCP,ioos:station:wmo:42365:1,2012-02-11T15:30:00Z,28.2000,-89.1200,5.2,11111222 
ADCP,ioos:station:wmo:42365:1,2012-02-11T16:30:00Z,28.2000,-89.1200,4.9,11111222 
ADCP,ioos:station:wmo:42365:1,2012-02-11T17:30:00Z,28.2000,-89.1200,5.5,11111222 
ADCP,ioos:station:wmo:42365:1,2012-02-11T18:30:00Z,28.2000,-89.1200,5.0,11111222 
ADCP,ioos:station:wmo:42365:1,2012-02-11T19:30:00Z,28.2000,-89.1200,5.1,11111222 
ADCP,ioos:station:wmo:42365:1,2012-02-11T20:30:00Z,28.2000,-89.1200,5.0,11111222 
ADCP,ioos:station:wmo:42365:1,2012-02-11T21:30:00Z,28.2000,-89.1200,4.5,11111222 
ADCP,ioos:station:wmo:42365:1,2012-02-11T22:30:00Z,28.2000,-89.1200,4.3,11111222 
ADCP,ioos:station:wmo:42365:1,2012-02-11T23:30:00Z,28.2000,-89.1200,3.7,11111222 
ADCP,ioos:station:wmo:42365:1,2012-02-12T00:30:00Z,28.2000,-89.1200,0.9,11111222 
ADCP,ioos:station:wmo:42365:1,2012-02-12T01:30:00Z,28.2000,-89.1200,0.9,11111222 
ADCP,ioos:station:wmo:42365:1,2012-02-12T02:30:00Z,28.2000,-89.1200,1.9,11111222 
ADCP,ioos:station:wmo:42365:1,2012-02-12T03:30:00Z,28.2000,-89.1200,1.2,11111222 
ADCP,ioos:station:wmo:42365:1,2012-02-12T05:30:00Z,28.2000,-89.1200,1.1,11111222 
ADCP,ioos:station:wmo:42365:1,2012-02-12T06:30:00Z,28.2000,-89.1200,2.4,11111222 
ADCP,ioos:station:wmo:42365:1,2012-02-12T07:30:00Z,28.2000,-89.1200,1.6,11111222 
ADCP,ioos:station:wmo:42365:1,2012-02-12T08:30:00Z,28.2000,-89.1200,1.9,11111222 
ADCP,ioos:station:wmo:42365:1,2012-02-12T10:30:00Z,28.2000,-89.1200,2.7,11111222 
ADCP,ioos:station:wmo:42365:1,2012-02-12T11:30:00Z,28.2000,-89.1200,2.2,11111222 
ADCP,ioos:station:wmo:42365:1,2012-02-12T12:30:00Z,28.2000,-89.1200,1.7,11111222 
ADCP,ioos:station:wmo:42365:1,2012-02-12T13:30:00Z,28.2000,-89.1200,0.5,11111222 
ADCP,ioos:station:wmo:42365:1,2012-02-12T14:30:00Z,28.2000,-89.1200,3.3,11111222 
ADCP,ioos:station:wmo:42365:1,2012-02-12T15:30:00Z,28.2000,-89.1200,2.8,11111222 
ADCP,ioos:station:wmo:42365:1,2012-02-12T16:30:00Z,28.2000,-89.1200,2.3,11111222 
ADCP,ioos:station:wmo:42365:1,2012-02-12T17:30:00Z,28.2000,-89.1200,1.0,11111222 
ADCP,ioos:station:wmo:42365:1,2012-02-12T19:30:00Z,28.2000,-89.1200,1.8,11111222 
ADCP,ioos:station:wmo:42365:1,2012-02-12T20:30:00Z,28.2000,-89.1200,1.8,11111222 
ADCP,ioos:station:wmo:42365:1,2012-02-12T21:30:00Z,28.2000,-89.1200,2.7,11111222 
ADCP,ioos:station:wmo:42365:1,2012-02-13T00:30:00Z,28.2000,-89.1200,2.3,11111222 
ADCP,ioos:station:wmo:42365:1,2012-02-13T01:30:00Z,28.2000,-89.1200,1.6,11111222 
ADCP,ioos:station:wmo:42365:1,2012-02-13T02:30:00Z,28.2000,-89.1200,1.3,11111222 
ADCP,ioos:station:wmo:42365:1,2012-02-13T03:30:00Z,28.2000,-89.1200,1.5,11111222 
ADCP,ioos:station:wmo:42365:1,2012-02-13T04:30:00Z,28.2000,-89.1200,1.4,11111222 
ADCP,ioos:station:wmo:42365:1,2012-02-13T05:30:00Z,28.2000,-89.1200,2.8,11111222 
ADCP,ioos:station:wmo:42365:1,2012-02-13T06:30:00Z,28.2000,-89.1200,3.4,11111222 
ADCP,ioos:station:wmo:42365:1,2012-02-13T07:30:00Z,28.2000,-89.1200,3.1,11111222 
ADCP,ioos:station:wmo:42365:1,2012-02-13T09:30:00Z,28.2000,-89.1200,4.2,11111222 
ADCP,ioos:station:wmo:42365:1,2012-02-13T10:30:00Z,28.2000,-89.1200,3.9,11111222 
ADCP,ioos:station:wmo:42365:1,2012-02-13T11:30:00Z,28.2000,-89.1200,4.1,11111222 
ADCP,ioos:station:wmo:42365:1,2012-02-13T12:30:00Z,28.2000,-89.1200,4.8,11111222 
ADCP,ioos:station:wmo:42365:1,2012-02-13T13:30:00Z,28.2000,-89.1200,5.5,11111222 
ADCP,ioos:station:wmo:42365:1,2012-02-13T14:30:00Z,28.2000,-89.1200,5.5,11111222 
ADCP,ioos:station:wmo:42365:1,2012-02-13T15:30:00Z,28.2000,-89.1200,5.9,11111222 
ADCP,ioos:station:wmo:42365:1,2012-02-13T16:30:00Z,28.2000,-89.1200,6.2,11111222 
ADCP,ioos:station:wmo:42365:1,2012-02-13T17:30:00Z,28.2000,-89.1200,7.2,11111222 
ADCP,ioos:station:wmo:42365:1,2012-02-13T18:30:00Z,28.2000,-89.1200,7.4,11111222 
ADCP,ioos:station:wmo:42365:1,2012-02-13T19:30:00Z,28.2000,-89.1200,8.2,11111222 
ADCP,ioos:station:wmo:42365:1,2012-02-13T20:30:00Z,28.2000,-89.1200,9.0,11111222 
ADCP,ioos:station:wmo:42365:1,2012-02-13T22:30:00Z,28.2000,-89.1200,10.7,11111222 